Year,Month,Day,Hour,Minute,Value (Times are PST for temperature in C)
2016,03,29,00,00,4.60
2016,03,29,00,01,4.50
2016,03,29,00,02,4.50
2016,03,29,00,03,4.50
2016,03,29,00,04,4.50
2016,03,29,00,05,4.50
2016,03,29,00,06,4.50
2016,03,29,00,07,4.50
2016,03,29,00,08,4.50
2016,03,29,00,09,4.40
2016,03,29,00,10,4.40
2016,03,29,00,11,4.40
2016,03,29,00,12,4.40
2016,03,29,00,13,4.40
2016,03,29,00,14,4.40
2016,03,29,00,15,4.40
2016,03,29,00,16,4.40
2016,03,29,00,17,4.40
2016,03,29,00,18,4.40
2016,03,29,00,19,4.40
2016,03,29,00,20,4.40
2016,03,29,00,21,4.40
2016,03,29,00,22,4.40
2016,03,29,00,23,4.30
2016,03,29,00,24,4.30
2016,03,29,00,25,4.30
2016,03,29,00,26,4.30
2016,03,29,00,27,4.30
2016,03,29,00,28,4.30
2016,03,29,00,29,4.30
2016,03,29,00,30,4.30
2016,03,29,00,31,4.30
2016,03,29,00,32,4.30
2016,03,29,00,33,4.30
2016,03,29,00,34,4.20
2016,03,29,00,35,4.20
2016,03,29,00,36,4.20
2016,03,29,00,37,4.20
2016,03,29,00,38,4.20
2016,03,29,00,39,4.20
2016,03,29,00,40,4.20
2016,03,29,00,41,4.10
2016,03,29,00,42,4.10
2016,03,29,00,43,4.10
2016,03,29,00,44,4.10
2016,03,29,00,45,4.10
2016,03,29,00,46,4.10
2016,03,29,00,47,4.10
2016,03,29,00,48,4.10
2016,03,29,00,49,4.10
2016,03,29,00,50,4.10
2016,03,29,00,51,4.10
2016,03,29,00,52,4.10
2016,03,29,00,53,4.00
2016,03,29,00,54,4.00
2016,03,29,00,55,4.00
2016,03,29,00,56,4.00
2016,03,29,00,57,4.00
2016,03,29,00,58,4.00
2016,03,29,00,59,3.90
2016,03,29,01,00,3.90
2016,03,29,01,01,3.80
2016,03,29,01,02,3.80
2016,03,29,01,03,3.80
2016,03,29,01,04,3.70
2016,03,29,01,05,3.70
2016,03,29,01,06,3.70
2016,03,29,01,07,3.70
2016,03,29,01,08,3.70
2016,03,29,01,09,3.70
2016,03,29,01,10,3.70
2016,03,29,01,11,3.70
2016,03,29,01,12,3.60
2016,03,29,01,13,3.60
2016,03,29,01,14,3.60
2016,03,29,01,15,3.60
2016,03,29,01,16,3.60
2016,03,29,01,17,3.60
2016,03,29,01,18,3.60
2016,03,29,01,19,3.60
2016,03,29,01,20,3.60
2016,03,29,01,21,3.60
2016,03,29,01,22,3.60
2016,03,29,01,23,3.60
2016,03,29,01,24,3.60
2016,03,29,01,25,3.50
2016,03,29,01,26,3.50
2016,03,29,01,27,3.50
2016,03,29,01,28,3.50
2016,03,29,01,29,3.50
2016,03,29,01,30,3.50
2016,03,29,01,31,3.50
2016,03,29,01,32,3.50
2016,03,29,01,33,3.50
2016,03,29,01,34,3.50
2016,03,29,01,35,3.50
2016,03,29,01,36,3.50
2016,03,29,01,37,3.40
2016,03,29,01,38,3.40
2016,03,29,01,39,3.40
2016,03,29,01,40,3.40
2016,03,29,01,41,3.40
2016,03,29,01,42,3.40
2016,03,29,01,43,3.30
2016,03,29,01,44,3.30
2016,03,29,01,45,3.30
2016,03,29,01,46,3.30
2016,03,29,01,47,3.30
2016,03,29,01,48,3.20
2016,03,29,01,49,3.20
2016,03,29,01,50,3.20
2016,03,29,01,51,3.20
2016,03,29,01,52,3.20
2016,03,29,01,53,3.20
2016,03,29,01,54,3.20
2016,03,29,01,55,3.10
2016,03,29,01,56,3.10
2016,03,29,01,57,3.10
2016,03,29,01,58,3.10
2016,03,29,01,59,3.00
2016,03,29,02,00,3.00
2016,03,29,02,01,3.00
2016,03,29,02,02,2.90
2016,03,29,02,03,2.90
2016,03,29,02,04,2.90
2016,03,29,02,05,2.90
2016,03,29,02,06,2.90
2016,03,29,02,07,2.90
2016,03,29,02,08,2.90
2016,03,29,02,09,2.90
2016,03,29,02,10,2.80
2016,03,29,02,11,2.80
2016,03,29,02,12,2.80
2016,03,29,02,13,2.80
2016,03,29,02,14,2.80
2016,03,29,02,15,2.80
2016,03,29,02,16,2.80
2016,03,29,02,17,2.80
2016,03,29,02,18,2.80
2016,03,29,02,19,2.80
2016,03,29,02,20,2.80
2016,03,29,02,21,2.80
2016,03,29,02,22,2.80
2016,03,29,02,23,2.80
2016,03,29,02,24,2.80
2016,03,29,02,25,2.80
2016,03,29,02,26,2.80
2016,03,29,02,27,2.80
2016,03,29,02,28,2.80
2016,03,29,02,29,2.80
2016,03,29,02,30,2.80
2016,03,29,02,31,2.80
2016,03,29,02,32,2.80
2016,03,29,02,33,2.80
2016,03,29,02,34,2.80
2016,03,29,02,35,2.70
2016,03,29,02,36,2.70
2016,03,29,02,37,2.70
2016,03,29,02,38,2.70
2016,03,29,02,39,2.70
2016,03,29,02,40,2.70
2016,03,29,02,41,2.70
2016,03,29,02,42,2.60
2016,03,29,02,43,2.60
2016,03,29,02,44,2.60
2016,03,29,02,45,2.60
2016,03,29,02,46,2.50
2016,03,29,02,47,2.50
2016,03,29,02,48,2.50
2016,03,29,02,49,2.50
2016,03,29,02,50,2.50
2016,03,29,02,51,2.50
2016,03,29,02,52,2.50
2016,03,29,02,53,2.50
2016,03,29,02,54,2.50
2016,03,29,02,55,2.40
2016,03,29,02,56,2.40
2016,03,29,02,57,2.40
2016,03,29,02,58,2.40
2016,03,29,02,59,2.40
2016,03,29,03,00,2.40
2016,03,29,03,01,2.40
2016,03,29,03,02,2.30
2016,03,29,03,03,2.30
2016,03,29,03,04,2.30
2016,03,29,03,05,2.30
2016,03,29,03,06,2.30
2016,03,29,03,07,2.30
2016,03,29,03,08,2.30
2016,03,29,03,09,2.30
2016,03,29,03,10,2.30
2016,03,29,03,11,2.30
2016,03,29,03,12,2.30
2016,03,29,03,13,2.30
2016,03,29,03,14,2.20
2016,03,29,03,15,2.20
2016,03,29,03,16,2.20
2016,03,29,03,17,2.20
2016,03,29,03,18,2.20
2016,03,29,03,19,2.20
2016,03,29,03,20,2.20
2016,03,29,03,21,2.20
2016,03,29,03,22,2.20
2016,03,29,03,23,2.20
2016,03,29,03,24,2.20
2016,03,29,03,25,2.20
2016,03,29,03,26,2.20
2016,03,29,03,27,2.20
2016,03,29,03,28,2.20
2016,03,29,03,29,2.20
2016,03,29,03,30,2.20
2016,03,29,03,31,2.20
2016,03,29,03,32,2.20
2016,03,29,03,33,2.20
2016,03,29,03,34,2.20
2016,03,29,03,35,2.20
2016,03,29,03,36,2.20
2016,03,29,03,37,2.20
2016,03,29,03,38,2.20
2016,03,29,03,39,2.20
2016,03,29,03,40,2.20
2016,03,29,03,41,2.30
2016,03,29,03,42,2.30
2016,03,29,03,43,2.30
2016,03,29,03,44,2.30
2016,03,29,03,45,2.30
2016,03,29,03,46,2.30
2016,03,29,03,47,2.30
2016,03,29,03,48,2.30
2016,03,29,03,49,2.30
2016,03,29,03,50,2.30
2016,03,29,03,51,2.40
2016,03,29,03,52,2.40
2016,03,29,03,53,2.40
2016,03,29,03,54,2.40
2016,03,29,03,55,2.40
2016,03,29,03,56,2.40
2016,03,29,03,57,2.40
2016,03,29,03,58,2.40
2016,03,29,03,59,2.40
2016,03,29,04,00,2.40
2016,03,29,04,01,2.40
2016,03,29,04,02,2.40
2016,03,29,04,03,2.40
2016,03,29,04,04,2.40
2016,03,29,04,05,2.40
2016,03,29,04,06,2.40
2016,03,29,04,07,2.40
2016,03,29,04,08,2.40
2016,03,29,04,09,2.40
2016,03,29,04,10,2.40
2016,03,29,04,11,2.40
2016,03,29,04,12,2.30
2016,03,29,04,13,2.30
2016,03,29,04,14,2.30
2016,03,29,04,15,2.30
2016,03,29,04,16,2.30
2016,03,29,04,17,2.30
2016,03,29,04,18,2.30
2016,03,29,04,19,2.30
2016,03,29,04,20,2.30
2016,03,29,04,21,2.30
2016,03,29,04,22,2.30
2016,03,29,04,23,2.30
2016,03,29,04,24,2.30
2016,03,29,04,25,2.40
2016,03,29,04,26,2.40
2016,03,29,04,27,2.40
2016,03,29,04,28,2.40
2016,03,29,04,29,2.40
2016,03,29,04,30,2.40
2016,03,29,04,31,2.40
2016,03,29,04,32,2.40
2016,03,29,04,33,2.40
2016,03,29,04,34,2.40
2016,03,29,04,35,2.30
2016,03,29,04,36,2.30
2016,03,29,04,37,2.30
2016,03,29,04,38,2.40
2016,03,29,04,39,2.40
2016,03,29,04,40,2.40
2016,03,29,04,41,2.40
2016,03,29,04,42,2.40
2016,03,29,04,43,2.40
2016,03,29,04,44,2.40
2016,03,29,04,45,2.40
2016,03,29,04,46,2.40
2016,03,29,04,47,2.40
2016,03,29,04,48,2.50
2016,03,29,04,49,2.50
2016,03,29,04,50,2.50
2016,03,29,04,51,2.50
2016,03,29,04,52,2.50
2016,03,29,04,53,2.60
2016,03,29,04,54,2.60
2016,03,29,04,55,2.60
2016,03,29,04,56,2.60
2016,03,29,04,57,2.60
2016,03,29,04,58,2.70
2016,03,29,04,59,2.70
2016,03,29,05,00,2.70
2016,03,29,05,01,2.70
2016,03,29,05,02,2.80
2016,03,29,05,03,2.80
2016,03,29,05,04,2.80
2016,03,29,05,05,2.80
2016,03,29,05,06,2.80
2016,03,29,05,07,2.80
2016,03,29,05,08,2.80
2016,03,29,05,09,2.70
2016,03,29,05,10,2.70
2016,03,29,05,11,2.70
2016,03,29,05,12,2.70
2016,03,29,05,13,2.70
2016,03,29,05,14,2.60
2016,03,29,05,15,2.50
2016,03,29,05,16,2.50
2016,03,29,05,17,2.40
2016,03,29,05,18,2.40
2016,03,29,05,19,2.40
2016,03,29,05,20,2.40
2016,03,29,05,21,2.30
2016,03,29,05,22,2.30
2016,03,29,05,23,2.30
2016,03,29,05,24,2.30
2016,03,29,05,25,2.30
2016,03,29,05,26,2.30
2016,03,29,05,27,2.40
2016,03,29,05,28,2.40
2016,03,29,05,29,2.40
2016,03,29,05,30,2.40
2016,03,29,05,31,2.40
2016,03,29,05,32,2.40
2016,03,29,05,33,2.40
2016,03,29,05,34,2.40
2016,03,29,05,35,2.40
2016,03,29,05,36,2.40
2016,03,29,05,37,2.40
2016,03,29,05,38,2.40
2016,03,29,05,39,2.40
2016,03,29,05,40,2.40
2016,03,29,05,41,2.40
2016,03,29,05,42,2.40
2016,03,29,05,43,2.40
2016,03,29,05,44,2.40
2016,03,29,05,45,2.40
2016,03,29,05,46,2.40
2016,03,29,05,47,2.50
2016,03,29,05,48,2.50
2016,03,29,05,49,2.50
2016,03,29,05,50,2.60
2016,03,29,05,51,2.60
2016,03,29,05,52,2.50
2016,03,29,05,53,2.50
2016,03,29,05,54,2.50
2016,03,29,05,55,2.50
2016,03,29,05,56,2.40
2016,03,29,05,57,2.40
2016,03,29,05,58,2.40
2016,03,29,05,59,2.40
2016,03,29,06,00,2.40
2016,03,29,06,01,2.30
2016,03,29,06,02,2.40
2016,03,29,06,03,2.40
2016,03,29,06,04,2.40
2016,03,29,06,05,2.40
2016,03,29,06,06,2.40
2016,03,29,06,07,2.40
2016,03,29,06,08,2.40
2016,03,29,06,09,2.40
2016,03,29,06,10,2.40
2016,03,29,06,11,2.40
2016,03,29,06,12,2.40
2016,03,29,06,13,2.40
2016,03,29,06,14,2.40
2016,03,29,06,15,2.40
2016,03,29,06,16,2.40
2016,03,29,06,17,2.40
2016,03,29,06,18,2.40
2016,03,29,06,19,2.40
2016,03,29,06,20,2.30
2016,03,29,06,21,2.30
2016,03,29,06,22,2.30
2016,03,29,06,23,2.30
2016,03,29,06,24,2.30
2016,03,29,06,25,2.30
2016,03,29,06,26,2.30
2016,03,29,06,27,2.30
2016,03,29,06,28,2.30
2016,03,29,06,29,2.30
2016,03,29,06,30,2.30
2016,03,29,06,31,2.30
2016,03,29,06,32,2.30
2016,03,29,06,33,2.30
2016,03,29,06,34,2.30
2016,03,29,06,35,2.30
2016,03,29,06,36,2.30
2016,03,29,06,37,2.30
2016,03,29,06,38,2.30
2016,03,29,06,39,2.30
2016,03,29,06,40,2.30
2016,03,29,06,41,2.30
2016,03,29,06,42,2.30
2016,03,29,06,43,2.30
2016,03,29,06,44,2.30
2016,03,29,06,45,2.30
2016,03,29,06,46,2.30
2016,03,29,06,47,2.40
2016,03,29,06,48,2.40
2016,03,29,06,49,2.40
2016,03,29,06,50,2.40
2016,03,29,06,51,2.40
2016,03,29,06,52,2.40
2016,03,29,06,53,2.40
2016,03,29,06,54,2.40
2016,03,29,06,55,2.40
2016,03,29,06,56,2.30
2016,03,29,06,57,2.30
2016,03,29,06,58,2.30
2016,03,29,06,59,2.40
2016,03,29,07,00,2.40
2016,03,29,07,01,2.40
2016,03,29,07,02,2.40
2016,03,29,07,03,2.40
2016,03,29,07,04,2.40
2016,03,29,07,05,2.40
2016,03,29,07,06,2.30
2016,03,29,07,07,2.30
2016,03,29,07,08,2.30
2016,03,29,07,09,2.30
2016,03,29,07,10,2.20
2016,03,29,07,11,2.20
2016,03,29,07,12,2.20
2016,03,29,07,13,2.20
2016,03,29,07,14,2.20
2016,03,29,07,15,2.30
2016,03,29,07,16,2.30
2016,03,29,07,17,2.30
2016,03,29,07,18,2.30
2016,03,29,07,19,2.30
2016,03,29,07,20,2.30
2016,03,29,07,21,2.40
2016,03,29,07,22,2.40
2016,03,29,07,23,2.40
2016,03,29,07,24,2.50
2016,03,29,07,25,2.50
2016,03,29,07,26,2.60
2016,03,29,07,27,2.60
2016,03,29,07,28,2.60
2016,03,29,07,29,2.70
2016,03,29,07,30,2.70
2016,03,29,07,31,2.80
2016,03,29,07,32,2.90
2016,03,29,07,33,2.90
2016,03,29,07,34,3.00
2016,03,29,07,35,3.10
2016,03,29,07,36,3.10
2016,03,29,07,37,3.20
2016,03,29,07,38,3.20
2016,03,29,07,39,3.20
2016,03,29,07,40,3.20
2016,03,29,07,41,3.20
2016,03,29,07,42,3.20
2016,03,29,07,43,3.20
2016,03,29,07,44,3.20
2016,03,29,07,45,3.20
2016,03,29,07,46,3.20
2016,03,29,07,47,3.20
2016,03,29,07,48,3.20
2016,03,29,07,49,3.30
2016,03,29,07,50,3.30
2016,03,29,07,51,3.40
2016,03,29,07,52,3.40
2016,03,29,07,53,3.40
2016,03,29,07,54,3.50
2016,03,29,07,55,3.50
2016,03,29,07,56,3.60
2016,03,29,07,57,3.60
2016,03,29,07,58,3.60
2016,03,29,07,59,3.70
2016,03,29,08,00,3.70
2016,03,29,08,01,3.80
2016,03,29,08,02,3.80
2016,03,29,08,03,3.90
2016,03,29,08,04,4.00
2016,03,29,08,05,4.20
2016,03,29,08,06,4.30
2016,03,29,08,07,4.30
2016,03,29,08,08,4.40
2016,03,29,08,09,4.50
2016,03,29,08,10,4.50
2016,03,29,08,11,4.60
2016,03,29,08,12,4.60
2016,03,29,08,13,4.60
2016,03,29,08,14,4.70
2016,03,29,08,15,4.70
2016,03,29,08,16,4.80
2016,03,29,08,17,4.80
2016,03,29,08,18,4.80
2016,03,29,08,19,4.80
2016,03,29,08,20,4.80
2016,03,29,08,21,4.80
2016,03,29,08,22,4.80
2016,03,29,08,23,4.80
2016,03,29,08,24,4.90
2016,03,29,08,25,5.00
2016,03,29,08,26,5.00
2016,03,29,08,27,5.10
2016,03,29,08,28,5.20
2016,03,29,08,29,5.30
2016,03,29,08,30,5.40
2016,03,29,08,31,5.60
2016,03,29,08,32,5.80
2016,03,29,08,33,5.90
2016,03,29,08,34,6.10
2016,03,29,08,35,6.20
2016,03,29,08,36,6.30
2016,03,29,08,37,6.40
2016,03,29,08,38,6.50
2016,03,29,08,39,6.60
2016,03,29,08,40,6.60
2016,03,29,08,41,6.60
2016,03,29,08,42,6.70
2016,03,29,08,43,6.70
2016,03,29,08,44,6.80
2016,03,29,08,45,6.80
2016,03,29,08,46,6.90
2016,03,29,08,47,7.00
2016,03,29,08,48,7.10
2016,03,29,08,49,7.20
2016,03,29,08,50,7.30
2016,03,29,08,51,7.40
2016,03,29,08,52,7.60
2016,03,29,08,53,7.70
2016,03,29,08,54,7.80
2016,03,29,08,55,7.90
2016,03,29,08,56,8.10
2016,03,29,08,57,8.20
2016,03,29,08,58,8.30
2016,03,29,08,59,8.40
2016,03,29,09,00,8.60
2016,03,29,09,01,8.80
2016,03,29,09,02,8.90
2016,03,29,09,03,9.10
2016,03,29,09,04,9.20
2016,03,29,09,05,9.30
2016,03,29,09,06,9.30
2016,03,29,09,07,9.40
2016,03,29,09,08,9.50
2016,03,29,09,09,9.60
2016,03,29,09,10,9.70
2016,03,29,09,11,9.80
2016,03,29,09,12,9.80
2016,03,29,09,13,9.90
2016,03,29,09,14,10.00
2016,03,29,09,15,10.10
2016,03,29,09,16,10.20
2016,03,29,09,17,10.20
2016,03,29,09,18,10.30
2016,03,29,09,19,10.30
2016,03,29,09,20,10.40
2016,03,29,09,21,10.40
2016,03,29,09,22,10.40
2016,03,29,09,23,10.50
2016,03,29,09,24,10.60
2016,03,29,09,25,10.60
2016,03,29,09,26,10.70
2016,03,29,09,27,10.80
2016,03,29,09,28,10.80
2016,03,29,09,29,10.90
2016,03,29,09,30,10.90
2016,03,29,09,31,11.00
2016,03,29,09,32,11.10
2016,03,29,09,33,11.20
2016,03,29,09,34,11.20
2016,03,29,09,35,11.20
2016,03,29,09,36,11.30
2016,03,29,09,37,11.40
2016,03,29,09,38,11.40
2016,03,29,09,39,11.40
2016,03,29,09,40,11.50
2016,03,29,09,41,11.60
2016,03,29,09,42,11.70
2016,03,29,09,43,11.80
2016,03,29,09,44,11.90
2016,03,29,09,45,11.90
2016,03,29,09,46,12.00
2016,03,29,09,47,11.90
2016,03,29,09,48,11.90
2016,03,29,09,49,11.90
2016,03,29,09,50,11.90
2016,03,29,09,51,12.00
2016,03,29,09,52,12.00
2016,03,29,09,53,12.00
2016,03,29,09,54,12.00
2016,03,29,09,55,12.10
2016,03,29,09,56,12.00
2016,03,29,09,57,12.00
2016,03,29,09,58,12.00
2016,03,29,09,59,12.10
2016,03,29,10,00,12.10
2016,03,29,10,01,12.30
2016,03,29,10,02,12.30
2016,03,29,10,03,12.30
2016,03,29,10,04,12.40
2016,03,29,10,05,12.50
2016,03,29,10,06,12.60
2016,03,29,10,07,12.70
2016,03,29,10,08,12.70
2016,03,29,10,09,12.80
2016,03,29,10,10,12.80
2016,03,29,10,11,12.80
2016,03,29,10,12,12.90
2016,03,29,10,13,13.00
2016,03,29,10,14,13.00
2016,03,29,10,15,13.00
2016,03,29,10,16,13.10
2016,03,29,10,17,13.10
2016,03,29,10,18,13.10
2016,03,29,10,19,13.10
2016,03,29,10,20,13.10
2016,03,29,10,21,13.10
2016,03,29,10,22,13.00
2016,03,29,10,23,13.00
2016,03,29,10,24,13.00
2016,03,29,10,25,13.00
2016,03,29,10,26,13.10
2016,03,29,10,27,13.20
2016,03,29,10,28,13.20
2016,03,29,10,29,13.20
2016,03,29,10,30,13.20
2016,03,29,10,31,13.30
2016,03,29,10,32,13.30
2016,03,29,10,33,13.30
2016,03,29,10,34,13.30
2016,03,29,10,35,13.20
2016,03,29,10,36,13.20
2016,03,29,10,37,13.20
2016,03,29,10,38,13.20
2016,03,29,10,39,13.10
2016,03,29,10,40,13.10
2016,03,29,10,41,13.10
2016,03,29,10,42,13.10
2016,03,29,10,43,13.10
2016,03,29,10,44,13.20
2016,03,29,10,45,13.20
2016,03,29,10,46,13.20
2016,03,29,10,47,13.20
2016,03,29,10,48,13.10
2016,03,29,10,49,13.10
2016,03,29,10,50,13.10
2016,03,29,10,51,13.10
2016,03,29,10,52,13.20
2016,03,29,10,53,13.20
2016,03,29,10,54,13.20
2016,03,29,10,55,13.20
2016,03,29,10,56,13.20
2016,03,29,10,57,13.20
2016,03,29,10,58,13.10
2016,03,29,10,59,13.10
2016,03,29,11,00,13.00
2016,03,29,11,01,13.00
2016,03,29,11,02,13.00
2016,03,29,11,03,13.00
2016,03,29,11,04,13.00
2016,03,29,11,05,13.00
2016,03,29,11,06,12.90
2016,03,29,11,07,12.90
2016,03,29,11,08,12.90
2016,03,29,11,09,13.00
2016,03,29,11,10,13.00
2016,03,29,11,11,13.10
2016,03,29,11,12,13.10
2016,03,29,11,13,13.10
2016,03,29,11,14,13.10
2016,03,29,11,15,13.20
2016,03,29,11,16,13.30
2016,03,29,11,17,13.30
2016,03,29,11,18,13.40
2016,03,29,11,19,13.40
2016,03,29,11,20,13.40
2016,03,29,11,21,13.30
2016,03,29,11,22,13.30
2016,03,29,11,23,13.30
2016,03,29,11,24,13.30
2016,03,29,11,25,13.30
2016,03,29,11,26,13.30
2016,03,29,11,27,13.30
2016,03,29,11,28,13.40
2016,03,29,11,29,13.40
2016,03,29,11,30,13.40
2016,03,29,11,31,13.50
2016,03,29,11,32,13.50
2016,03,29,11,33,13.50
2016,03,29,11,34,13.50
2016,03,29,11,35,13.50
2016,03,29,11,36,13.40
2016,03,29,11,37,13.40
2016,03,29,11,38,13.30
2016,03,29,11,39,13.30
2016,03,29,11,40,13.20
2016,03,29,11,41,13.10
2016,03,29,11,42,13.10
2016,03,29,11,43,13.10
2016,03,29,11,44,13.10
2016,03,29,11,45,13.20
2016,03,29,11,46,13.20
2016,03,29,11,47,13.20
2016,03,29,11,48,13.20
2016,03,29,11,49,13.20
2016,03,29,11,50,13.20
2016,03,29,11,51,13.20
2016,03,29,11,52,13.20
2016,03,29,11,53,13.20
2016,03,29,11,54,13.20
2016,03,29,11,55,13.20
2016,03,29,11,56,13.30
2016,03,29,11,57,13.30
2016,03,29,11,58,13.40
2016,03,29,11,59,13.40
2016,03,29,12,00,13.50
2016,03,29,12,01,13.50
2016,03,29,12,02,13.50
2016,03,29,12,03,13.60
2016,03,29,12,04,13.60
2016,03,29,12,05,13.70
2016,03,29,12,06,13.70
2016,03,29,12,07,13.80
2016,03,29,12,08,13.90
2016,03,29,12,09,14.00
2016,03,29,12,10,14.10
2016,03,29,12,11,14.10
2016,03,29,12,12,14.10
2016,03,29,12,13,14.10
2016,03,29,12,14,14.10
2016,03,29,12,15,14.00
2016,03,29,12,16,14.00
2016,03,29,12,17,14.00
2016,03,29,12,18,14.00
2016,03,29,12,19,14.00
2016,03,29,12,20,14.00
2016,03,29,12,21,14.00
2016,03,29,12,22,14.00
2016,03,29,12,23,14.00
2016,03,29,12,24,14.00
2016,03,29,12,25,14.00
2016,03,29,12,26,14.10
2016,03,29,12,27,14.10
2016,03,29,12,28,14.10
2016,03,29,12,29,14.10
2016,03,29,12,30,14.10
2016,03,29,12,31,14.10
2016,03,29,12,32,14.10
2016,03,29,12,33,14.20
2016,03,29,12,34,14.20
2016,03,29,12,35,14.30
2016,03,29,12,36,14.40
2016,03,29,12,37,14.50
2016,03,29,12,38,14.60
2016,03,29,12,39,14.70
2016,03,29,12,40,14.70
2016,03,29,12,41,14.80
2016,03,29,12,42,14.90
2016,03,29,12,43,14.90
2016,03,29,12,44,15.00
2016,03,29,12,45,15.10
2016,03,29,12,46,15.20
2016,03,29,12,47,15.30
2016,03,29,12,48,15.50
2016,03,29,12,49,15.70
2016,03,29,12,50,15.80
2016,03,29,12,51,15.90
2016,03,29,12,52,16.00
2016,03,29,12,53,16.10
2016,03,29,12,54,16.20
2016,03,29,12,55,16.20
2016,03,29,12,56,16.20
2016,03,29,12,57,16.10
2016,03,29,12,58,16.10
2016,03,29,12,59,15.90
2016,03,29,13,00,15.90
2016,03,29,13,01,15.80
2016,03,29,13,02,15.70
2016,03,29,13,03,15.70
2016,03,29,13,04,15.70
2016,03,29,13,05,15.70
2016,03,29,13,06,15.80
2016,03,29,13,07,16.00
2016,03,29,13,08,16.10
2016,03,29,13,09,16.10
2016,03,29,13,10,16.20
2016,03,29,13,11,16.20
2016,03,29,13,12,16.20
2016,03,29,13,13,16.30
2016,03,29,13,14,16.30
2016,03,29,13,15,16.30
2016,03,29,13,16,16.30
2016,03,29,13,17,16.40
2016,03,29,13,18,16.40
2016,03,29,13,19,16.60
2016,03,29,13,20,16.70
2016,03,29,13,21,16.80
2016,03,29,13,22,16.90
2016,03,29,13,23,16.90
2016,03,29,13,24,16.80
2016,03,29,13,25,16.70
2016,03,29,13,26,16.60
2016,03,29,13,27,16.60
2016,03,29,13,28,16.50
2016,03,29,13,29,16.60
2016,03,29,13,30,16.60
2016,03,29,13,31,16.70
2016,03,29,13,32,16.70
2016,03,29,13,33,16.70
2016,03,29,13,34,16.60
2016,03,29,13,35,16.60
2016,03,29,13,36,16.60
2016,03,29,13,37,16.60
2016,03,29,13,38,16.50
2016,03,29,13,39,16.50
2016,03,29,13,40,16.40
2016,03,29,13,41,16.40
2016,03,29,13,42,16.40
2016,03,29,13,43,16.40
2016,03,29,13,44,16.30
2016,03,29,13,45,16.30
2016,03,29,13,46,16.30
2016,03,29,13,47,16.30
2016,03,29,13,48,16.30
2016,03,29,13,49,16.20
2016,03,29,13,50,16.30
2016,03,29,13,51,16.30
2016,03,29,13,52,16.30
2016,03,29,13,53,16.30
2016,03,29,13,54,16.30
2016,03,29,13,55,16.30
2016,03,29,13,56,16.30
2016,03,29,13,57,16.30
2016,03,29,13,58,16.40
2016,03,29,13,59,16.40
2016,03,29,14,00,16.50
2016,03,29,14,01,16.60
2016,03,29,14,02,16.60
2016,03,29,14,03,16.70
2016,03,29,14,04,16.70
2016,03,29,14,05,16.70
2016,03,29,14,06,16.70
2016,03,29,14,07,16.80
2016,03,29,14,08,16.90
2016,03,29,14,09,16.90
2016,03,29,14,10,16.90
2016,03,29,14,11,16.90
2016,03,29,14,12,16.90
2016,03,29,14,13,16.90
2016,03,29,14,14,16.90
2016,03,29,14,15,16.90
2016,03,29,14,16,16.90
2016,03,29,14,17,16.90
2016,03,29,14,18,16.90
2016,03,29,14,19,16.90
2016,03,29,14,20,16.90
2016,03,29,14,21,16.90
2016,03,29,14,22,17.00
2016,03,29,14,23,17.10
2016,03,29,14,24,17.20
2016,03,29,14,25,17.30
2016,03,29,14,26,17.40
2016,03,29,14,27,17.60
2016,03,29,14,28,17.60
2016,03,29,14,29,17.70
2016,03,29,14,30,17.70
2016,03,29,14,31,17.60
2016,03,29,14,32,17.50
2016,03,29,14,33,17.40
2016,03,29,14,34,17.30
2016,03,29,14,35,17.20
2016,03,29,14,36,17.20
2016,03,29,14,37,17.20
2016,03,29,14,38,17.20
2016,03,29,14,39,17.20
2016,03,29,14,40,17.10
2016,03,29,14,41,17.00
2016,03,29,14,42,16.90
2016,03,29,14,43,16.70
2016,03,29,14,44,16.60
2016,03,29,14,45,16.50
2016,03,29,14,46,16.50
2016,03,29,14,47,16.40
2016,03,29,14,48,16.40
2016,03,29,14,49,16.30
2016,03,29,14,50,16.30
2016,03,29,14,51,16.20
2016,03,29,14,52,16.20
2016,03,29,14,53,16.10
2016,03,29,14,54,16.10
2016,03,29,14,55,16.10
2016,03,29,14,56,16.10
2016,03,29,14,57,16.00
2016,03,29,14,58,15.90
2016,03,29,14,59,15.90
2016,03,29,15,00,15.80
2016,03,29,15,01,15.80
2016,03,29,15,02,15.70
2016,03,29,15,03,15.70
2016,03,29,15,04,15.70
2016,03,29,15,05,15.70
2016,03,29,15,06,15.70
2016,03,29,15,07,15.80
2016,03,29,15,08,15.80
2016,03,29,15,09,15.90
2016,03,29,15,10,16.00
2016,03,29,15,11,16.10
2016,03,29,15,12,16.20
2016,03,29,15,13,16.20
2016,03,29,15,14,16.30
2016,03,29,15,15,16.30
2016,03,29,15,16,16.40
2016,03,29,15,17,16.40
2016,03,29,15,18,16.50
2016,03,29,15,19,16.60
2016,03,29,15,20,16.60
2016,03,29,15,21,16.60
2016,03,29,15,22,16.60
2016,03,29,15,23,16.60
2016,03,29,15,24,16.60
2016,03,29,15,25,16.60
2016,03,29,15,26,16.60
2016,03,29,15,27,16.60
2016,03,29,15,28,16.60
2016,03,29,15,29,16.70
2016,03,29,15,30,16.70
2016,03,29,15,31,16.80
2016,03,29,15,32,16.80
2016,03,29,15,33,16.70
2016,03,29,15,34,16.70
2016,03,29,15,35,16.70
2016,03,29,15,36,16.70
2016,03,29,15,37,16.70
2016,03,29,15,38,16.70
2016,03,29,15,39,16.80
2016,03,29,15,40,16.90
2016,03,29,15,41,16.90
2016,03,29,15,42,17.00
2016,03,29,15,43,17.10
2016,03,29,15,44,17.10
2016,03,29,15,45,17.20
2016,03,29,15,46,17.20
2016,03,29,15,47,17.30
2016,03,29,15,48,17.40
2016,03,29,15,49,17.40
2016,03,29,15,50,17.40
2016,03,29,15,51,17.30
2016,03,29,15,52,17.30
2016,03,29,15,53,17.30
2016,03,29,15,54,17.20
2016,03,29,15,55,17.20
2016,03,29,15,56,17.10
2016,03,29,15,57,17.10
2016,03,29,15,58,17.00
2016,03,29,15,59,17.00
2016,03,29,16,00,16.90
2016,03,29,16,01,16.80
2016,03,29,16,02,16.80
2016,03,29,16,03,16.70
2016,03,29,16,04,16.70
2016,03,29,16,05,16.80
2016,03,29,16,06,16.80
2016,03,29,16,07,16.80
2016,03,29,16,08,16.80
2016,03,29,16,09,16.90
2016,03,29,16,10,17.00
2016,03,29,16,11,17.00
2016,03,29,16,12,17.10
2016,03,29,16,13,17.20
2016,03,29,16,14,17.30
2016,03,29,16,15,17.40
2016,03,29,16,16,17.50
2016,03,29,16,17,17.70
2016,03,29,16,18,17.70
2016,03,29,16,19,17.80
2016,03,29,16,20,17.90
2016,03,29,16,21,18.00
2016,03,29,16,22,18.00
2016,03,29,16,23,17.90
2016,03,29,16,24,17.50
2016,03,29,16,25,17.00
2016,03,29,16,26,16.60
2016,03,29,16,27,16.20
2016,03,29,16,28,15.90
2016,03,29,16,29,15.70
2016,03,29,16,30,15.60
2016,03,29,16,31,15.40
2016,03,29,16,32,15.30
2016,03,29,16,33,15.30
2016,03,29,16,34,15.20
2016,03,29,16,35,15.20
2016,03,29,16,36,15.20
2016,03,29,16,37,15.20
2016,03,29,16,38,15.30
2016,03,29,16,39,15.30
2016,03,29,16,40,15.40
2016,03,29,16,41,15.50
2016,03,29,16,42,15.60
2016,03,29,16,43,15.70
2016,03,29,16,44,15.80
2016,03,29,16,45,15.80
2016,03,29,16,46,15.90
2016,03,29,16,47,15.90
2016,03,29,16,48,15.80
2016,03,29,16,49,15.80
2016,03,29,16,50,15.80
2016,03,29,16,51,15.80
2016,03,29,16,52,15.90
2016,03,29,16,53,16.00
2016,03,29,16,54,16.00
2016,03,29,16,55,16.10
2016,03,29,16,56,16.10
2016,03,29,16,57,16.10
2016,03,29,16,58,16.20
2016,03,29,16,59,16.30
2016,03,29,17,00,16.40
2016,03,29,17,01,16.40
2016,03,29,17,02,16.40
2016,03,29,17,03,16.20
2016,03,29,17,04,16.00
2016,03,29,17,05,15.70
2016,03,29,17,06,15.40
2016,03,29,17,07,15.30
2016,03,29,17,08,15.10
2016,03,29,17,09,15.00
2016,03,29,17,10,15.00
2016,03,29,17,11,14.90
2016,03,29,17,12,14.90
2016,03,29,17,13,14.80
2016,03,29,17,14,14.80
2016,03,29,17,15,14.90
2016,03,29,17,16,14.90
2016,03,29,17,17,14.90
2016,03,29,17,18,14.90
2016,03,29,17,19,14.90
2016,03,29,17,20,14.90
2016,03,29,17,21,15.00
2016,03,29,17,22,15.10
2016,03,29,17,23,15.20
2016,03,29,17,24,15.30
2016,03,29,17,25,15.40
2016,03,29,17,26,15.40
2016,03,29,17,27,15.40
2016,03,29,17,28,15.50
2016,03,29,17,29,15.50
2016,03,29,17,30,15.50
2016,03,29,17,31,15.60
2016,03,29,17,32,15.60
2016,03,29,17,33,15.70
2016,03,29,17,34,15.70
2016,03,29,17,35,15.70
2016,03,29,17,36,15.80
2016,03,29,17,37,15.80
2016,03,29,17,38,15.80
2016,03,29,17,39,15.80
2016,03,29,17,40,15.80
2016,03,29,17,41,15.80
2016,03,29,17,42,15.80
2016,03,29,17,43,15.80